FW0153 Weather Reports


time (UTC)temp
F
wind
direction
speed
knots
gust
knots
rain 1hr
in
rain 24hr
in
rain mn
in
humidity
%
barometer
mb
20260906073004 75 111 0.0 0.0 0.00 0.00 0.00 85 1010.3
20260906072505 75 111 0.0 0.0 0.00 0.00 0.00 85 1010.3
20260906072005 75 111 0.0 0.0 0.00 0.00 0.00 85 1010.3
20260906071505 75 111 0.0 0.0 0.00 0.00 0.00 84 1010.3
20260906071005 75 111 0.0 0.0 0.00 0.00 0.00 84 1010.3
20260906070505 75 110 0.0 0.0 0.00 0.00 0.00 84 1010.3
20260906070005 75 110 0.0 0.0 0.00 0.00 0.00 83 1010.6
20260906065505 75 110 0.0 0.0 0.00 0.00 0.00 83 1010.6
20260906065005 76 110 0.0 0.0 0.00 0.00 0.00 83 1010.6
20260906064505 75 118 0.0 0.0 0.00 0.00 0.00 83 1011.0
20260906064006 75 144 0.0 0.0 0.00 0.00 0.00 84 1010.6
20260906063504 75 141 0.0 0.0 0.00 0.00 0.00 84 1011.0
20260906063005 75 117 0.0 0.0 0.00 0.00 0.00 84 1011.0
20260906062505 75 118 0.0 0.0 0.00 0.00 0.00 84 1010.6
20260906062005 75 116 0.0 0.0 0.00 0.00 0.00 84 1011.0
20260906061712 75 118 0.0 0.0 0.00 0.00 0.00 84 1011.0
20260906061005 75 169 3.5 0.0 0.00 0.00 0.00 84 1010.6
20260906060504 75 111 0.0 0.0 0.00 0.00 0.00 84 1010.6
20260906060005 75 119 0.0 0.0 0.00 0.00 0.00 84 1011.0
20260906055712 75 136 0.0 0.0 0.00 0.00 0.00 84 1011.0
20260906055213 75 135 0.0 0.0 0.00 0.00 0.00 83 1010.6
20260906054505 75 136 0.0 0.0 0.00 0.00 0.00 83 1011.0
20260906054005 75 116 0.0 0.0 0.00 0.00 0.00 83 1011.0
20260906053505 75 122 0.0 0.0 0.00 0.00 0.00 84 1011.0
20260906053005 75 122 0.0 0.0 0.00 0.00 0.00 83 1011.0
20260906052505 75 126 0.0 0.0 0.00 0.00 0.00 83 1011.0
20260906052005 75 123 0.0 0.0 0.00 0.00 0.00 83 1011.3
20260906051505 75 115 0.0 0.0 0.00 0.00 0.00 83 1011.6
20260906051005 75 117 0.0 0.0 0.00 0.00 0.00 83 1011.3
20260906050711 75 137 0.0 0.0 0.00 0.00 0.00 83 1011.3
20260906045505 76 114 0.0 0.0 0.00 0.00 0.00 82 1011.6
20260906045005 75 95 0.0 0.0 0.00 0.00 0.00 82 1011.6
20260906044505 75 147 0.0 0.0 0.00 0.00 0.00 82 1011.3
20260906044004 75 111 0.0 0.0 0.00 0.00 0.00 81 1011.0
20260906043505 75 120 0.0 0.0 0.00 0.00 0.00 81 1011.0
20260906043005 75 114 0.0 0.0 0.00 0.00 0.00 82 1011.3
20260906042505 76 118 0.0 0.0 0.00 0.00 0.00 82 1011.0
20260906042005 76 110 0.0 0.0 0.00 0.00 0.00 82 1011.3
20260906041505 76 135 0.0 0.0 0.00 0.00 0.00 81 1011.3
20260906041005 76 92 3.5 0.0 0.00 0.00 0.00 81 1011.3
20260906040505 76 69 7.8 0.0 0.00 0.00 0.00 80 1011.3
20260906040005 77 111 0.0 0.0 0.00 0.00 0.00 79 1011.0
20260906035505 77 90 0.0 0.0 0.00 0.00 0.00 77 1011.0
20260906035005 77 102 0.0 0.0 0.00 0.00 0.00 76 1011.0
20260906034711 77 129 0.0 0.0 0.00 0.00 0.00 75 1011.0
20260906034005 77 85 0.0 0.0 0.00 0.00 0.00 74 1010.6
20260906033713 77 94 3.5 0.0 0.00 0.00 0.00 73 1011.0
20260906033212 76 100 0.0 0.0 0.00 0.00 0.00 73 1011.3
20260906032505 76 142 0.0 0.0 0.00 0.00 0.00 73 1011.0
20260906032004 76 113 0.0 0.0 0.00 0.00 0.00 72 1011.0
20260906031505 76 117 3.5 0.0 0.00 0.00 0.00 72 1011.0
20260906031212 76 114 0.0 0.0 0.00 0.00 0.00 71 1011.3
20260906030505 76 116 3.5 0.0 0.00 0.00 0.00 72 1011.3
20260906030005 76 160 3.5 0.0 0.00 0.00 0.00 72 1011.3
20260906025505 76 140 3.5 0.0 0.00 0.00 0.00 72 1011.3
20260906025005 76 129 3.5 0.0 0.00 0.00 0.00 72 1011.3
20260906024505 76 204 15.6 0.0 0.00 0.00 0.00 74 1011.6
20260906024213 76 114 11.3 0.0 0.00 0.00 0.00 73 1011.6
20260906023504 77 149 11.3 0.0 0.00 0.00 0.00 72 1011.3
20260906023212 77 184 7.8 0.0 0.00 0.00 0.00 68 1011.3
20260906022505 77 119 7.8 0.0 0.00 0.00 0.00 67 1011.3
20260906022005 78 187 7.8 0.0 0.00 0.00 0.00 67 1011.6
20260906021504 79 207 23.5 0.0 0.00 0.00 0.00 67 1011.3
20260906021005 81 198 15.6 0.0 0.00 0.00 0.00 65 1011.3
20260906020505 83 234 20.0 0.0 0.00 0.00 0.00 65 1011.3
20260906020005 83 19 3.5 0.0 0.00 0.00 0.00 65 1010.6
20260906015505 83 98 3.5 0.0 0.00 0.00 0.00 65 1010.6
20260906015005 83 100 11.3 0.0 0.00 0.00 0.00 65 1010.3
20260906014712 83 42 11.3 0.0 0.00 0.00 0.00 65 1009.9
20260906014213 83 138 7.8 0.0 0.00 0.00 0.00 64 1009.6
20260906013505 83 139 3.5 0.0 0.00 0.00 0.00 64 1009.6
20260906013005 84 303 7.8 0.0 0.00 0.00 0.00 63 1009.3
20260906012505 84 166 3.5 0.0 0.00 0.00 0.00 63 1009.3
20260906012005 84 77 15.6 0.0 0.00 0.00 0.00 62 1009.3
20260906011712 84 9 7.8 0.0 0.00 0.00 0.00 61 1009.3
20260906011213 84 145 11.3 0.0 0.00 0.00 0.00 61 1008.9
20260906010712 85 103 15.6 0.0 0.00 0.00 0.00 61 1008.9
20260906010005 85 75 3.5 0.0 0.00 0.00 0.00 60 1008.9
20260906005505 85 94 7.8 0.0 0.00 0.00 0.00 59 1008.6
20260906005005 85 100 7.8 0.0 0.00 0.00 0.00 58 1008.6
20260906004505 86 35 3.5 0.0 0.00 0.00 0.00 58 1008.6
20260906004005 86 116 27.8 0.0 0.00 0.00 0.00 57 1008.6
20260906003505 86 40 7.8 0.0 0.00 0.00 0.00 56 1008.2
20260906003004 86 74 15.6 0.0 0.00 0.00 0.00 56 1008.2
20260906002712 86 6 11.3 0.0 0.00 0.00 0.00 55 1008.2
20260906002005 86 114 11.3 0.0 0.00 0.00 0.00 54 1007.9
20260906001504 86 139 7.8 0.0 0.00 0.00 0.00 53 1007.9
20260906001005 87 357 23.5 0.0 0.00 0.00 0.00 53 1007.9
20260906000505 87 79 15.6 0.0 0.00 0.00 0.00 52 1007.9
20260906000005 88 164 7.8 0.0 0.00 0.00 0.00 51 1007.6
20260905235505 88 86 7.8 0.0 0.00 0.00 0.00 50 1007.2
20260905235005 88 116 3.5 0.0 0.00 0.00 0.00 50 1006.9
20260905234505 88 84 20.0 0.0 0.00 0.00 0.00 50 1006.9
20260905234005 89 29 20.0 0.0 0.00 0.00 0.00 49 1006.9
20260905233505 89 50 7.8 0.0 0.00 0.00 0.00 49 1006.9
20260905233004 89 102 11.3 0.0 0.00 0.00 0.00 48 1006.9
20260905232505 89 70 15.6 0.0 0.00 0.00 0.00 48 1006.9
20260905232005 89 39 20.0 0.0 0.00 0.00 0.00 47 1006.9
20260905231505 90 5 11.3 0.0 0.00 0.00 0.00 46 1006.9
20260905231005 90 120 11.3 0.0 0.00 0.00 0.00 44 1006.9
20260905230505 90 44 20.0 0.0 0.00 0.00 0.00 44 1006.9
20260905230212 90 156 7.8 0.0 0.00 0.00 0.00 44 1006.5
20260905225505 91 41 20.0 0.0 0.00 0.00 0.00 44 1006.5
20260905225005 90 62 20.0 0.0 0.00 0.00 0.00 43 1006.2
20260905224504 91 356 7.8 0.0 0.00 0.00 0.00 43 1006.5
20260905224005 91 100 23.5 0.0 0.00 0.00 0.00 43 1006.5
20260905223505 91 83 15.6 0.0 0.00 0.00 0.00 42 1006.5
20260905223005 91 2 20.0 0.0 0.00 0.00 0.00 41 1006.2
20260905222505 92 62 11.3 0.0 0.00 0.00 0.00 41 1006.2
20260905222005 92 68 7.8 0.0 0.00 0.00 0.00 40 1006.2
20260905221505 92 48 11.3 0.0 0.00 0.00 0.00 40 1006.2
20260905221005 91 155 3.5 0.0 0.00 0.00 0.00 41 1006.2
20260905220504 92 44 11.3 0.0 0.00 0.00 0.00 39 1006.2
20260905220005 92 30 15.6 0.0 0.00 0.00 0.00 38 1006.2
20260905215713 92 100 15.6 0.0 0.00 0.00 0.00 37 1006.5
20260905215005 92 66 3.5 0.0 0.00 0.00 0.00 37 1006.2
20260905214505 92 90 11.3 0.0 0.00 0.00 0.00 36 1006.5
20260905214005 93 47 23.5 0.0 0.00 0.00 0.00 36 1006.5
20260905213505 93 141 3.5 0.0 0.00 0.00 0.00 36 1006.5
20260905213006 93 116 7.8 0.0 0.00 0.00 0.00 36 1006.9
20260905212712 92 125 7.8 0.0 0.00 0.00 0.00 37 1006.5
20260905212211 92 108 11.3 0.0 0.00 0.00 0.00 38 1006.5
20260905211505 92 163 11.3 0.0 0.00 0.00 0.00 38 1006.9
20260905211005 91 129 7.8 0.0 0.00 0.00 0.00 39 1006.9
20260905210505 92 104 7.8 0.0 0.00 0.00 0.00 39 1006.9
20260905210211 92 62 7.8 0.0 0.00 0.00 0.00 38 1006.9
20260905205505 92 43 11.3 0.0 0.00 0.00 0.00 38 1007.2
20260905205005 94 99 7.8 0.0 0.00 0.00 0.00 36 1007.2
20260905204712 93 8 15.6 0.0 0.00 0.00 0.00 37 1007.2
20260905204211 93 154 7.8 0.0 0.00 0.00 0.00 37 1007.6
20260905203505 92 78 11.3 0.0 0.00 0.00 0.00 37 1007.6
20260905203213 93 131 11.3 0.0 0.00 0.00 0.00 38 1007.2
20260905202505 93 136 15.6 0.0 0.00 0.00 0.00 37 1007.2
20260905202005 93 58 11.3 0.0 0.00 0.00 0.00 36 1007.6
20260905201505 92 83 3.5 0.0 0.00 0.00 0.00 38 1007.9
20260905201004 92 41 7.8 0.0 0.00 0.00 0.00 39 1007.9
20260905200505 92 51 3.5 0.0 0.00 0.00 0.00 38 1007.9
20260905200005 92 78 7.8 0.0 0.00 0.00 0.00 38 1008.2
20260905195505 93 84 11.3 0.0 0.00 0.00 0.00 37 1008.2
20260905195213 93 73 7.8 0.0 0.00 0.00 0.00 36 1008.2
20260905194505 93 107 7.8 0.0 0.00 0.00 0.00 37 1008.6
20260905194005 92 158 3.5 0.0 0.00 0.00 0.00 40 1008.6
20260905193504 93 88 3.5 0.0 0.00 0.00 0.00 39 1008.6
20260905193005 93 118 11.3 0.0 0.00 0.00 0.00 39 1008.6
20260905192712 92 79 3.5 0.0 0.00 0.00 0.00 40 1008.6
20260905192005 92 327 15.6 0.0 0.00 0.00 0.00 41 1008.9
20260905191505 93 59 7.8 0.0 0.00 0.00 0.00 39 1008.9
20260905191213 92 37 7.8 0.0 0.00 0.00 0.00 40 1009.3
20260905190505 92 124 11.3 0.0 0.00 0.00 0.00 41 1008.9
20260905190213 92 88 7.8 0.0 0.00 0.00 0.00 42 1009.3
20260905185505 92 62 11.3 0.0 0.00 0.00 0.00 43 1009.3
20260905185005 91 59 20.0 0.0 0.00 0.00 0.00 44 1009.3
20260905184505 91 82 11.3 0.0 0.00 0.00 0.00 44 1009.6
20260905184004 91 45 15.6 0.0 0.00 0.00 0.00 45 1009.3
20260905183505 92 161 7.8 0.0 0.00 0.00 0.00 43 1009.6
20260905183005 91 55 11.3 0.0 0.00 0.00 0.00 43 1009.6
20260905182505 89 72 3.5 0.0 0.00 0.00 0.00 46 1009.3
20260905182005 90 131 7.8 0.0 0.00 0.00 0.00 46 1009.6
20260905181505 91 113 3.5 0.0 0.00 0.00 0.00 43 1009.6
20260905181005 91 36 7.8 0.0 0.00 0.00 0.00 44 1009.9
20260905180505 91 165 3.5 0.0 0.00 0.00 0.00 45 1009.9
20260905180005 90 107 3.5 0.0 0.00 0.00 0.00 47 1009.9
20260905175505 91 351 11.3 0.0 0.00 0.00 0.00 45 1009.9
20260905175005 91 68 15.6 0.0 0.00 0.00 0.00 44 1010.3
20260905174505 90 47 7.8 0.0 0.00 0.00 0.00 48 1009.9
20260905174212 91 18 11.3 0.0 0.00 0.00 0.00 47 1010.3
20260905173505 90 164 7.8 0.0 0.00 0.00 0.00 48 1010.3
20260905173005 90 27 11.3 0.0 0.00 0.00 0.00 47 1010.3
20260905172505 89 25 15.6 0.0 0.00 0.00 0.00 49 1010.3
20260905172005 90 81 7.8 0.0 0.00 0.00 0.00 48 1010.6
20260905171713 89 351 15.6 0.0 0.00 0.00 0.00 49 1010.6
20260905171005 89 144 20.0 0.0 0.00 0.00 0.00 50 1010.6
20260905170713 89 357 3.5 0.0 0.00 0.00 0.00 50 1010.6
20260905170212 89 119 0.0 0.0 0.00 0.00 0.00 52 1010.6
20260905165505 88 108 7.8 0.0 0.00 0.00 0.00 52 1011.0
20260905165005 88 196 7.8 0.0 0.00 0.00 0.00 54 1010.6
20260905164505 89 171 15.6 0.0 0.00 0.00 0.00 52 1010.6
20260905164005 89 88 15.6 0.0 0.00 0.00 0.00 53 1010.6
20260905163505 89 39 11.3 0.0 0.00 0.00 0.00 54 1011.0
20260905163004 88 178 7.8 0.0 0.00 0.00 0.00 53 1010.6
20260905162505 88 190 7.8 0.0 0.00 0.00 0.00 53 1011.0
20260905162005 86 45 3.5 0.0 0.00 0.00 0.00 58 1011.0
20260905161505 86 156 15.6 0.0 0.00 0.00 0.00 57 1011.3
20260905161005 88 85 15.6 0.0 0.00 0.00 0.00 55 1011.3
20260905160505 87 119 7.8 0.0 0.00 0.00 0.00 56 1011.3
20260905160005 87 116 11.3 0.0 0.00 0.00 0.00 57 1011.3
20260905155505 86 115 7.8 0.0 0.00 0.00 0.00 58 1011.3
20260905155211 86 156 7.8 0.0 0.00 0.00 0.00 58 1011.3
20260905154505 86 105 11.3 0.0 0.00 0.00 0.00 60 1011.0
20260905154005 86 119 3.5 0.0 0.00 0.00 0.00 59 1011.3
20260905153712 86 179 3.5 0.0 0.00 0.00 0.00 61 1011.0
20260905153005 86 87 11.3 0.0 0.00 0.00 0.00 61 1011.0
20260905152712 85 56 7.8 0.0 0.00 0.00 0.00 62 1011.3
20260905152005 85 355 3.5 0.0 0.00 0.00 0.00 63 1011.6
20260905151505 86 139 11.3 0.0 0.00 0.00 0.00 62 1011.3
20260905151004 84 132 7.8 0.0 0.00 0.00 0.00 65 1011.3
20260905150505 84 105 15.6 0.0 0.00 0.00 0.00 66 1011.6
20260905150005 84 142 15.6 0.0 0.00 0.00 0.00 67 1011.3
20260905145505 84 172 3.5 0.0 0.00 0.00 0.00 67 1011.3
20260905145005 84 165 15.6 0.0 0.00 0.00 0.00 68 1011.3
20260905144505 84 152 7.8 0.0 0.00 0.00 0.00 68 1011.3
20260905144005 83 61 11.3 0.0 0.00 0.00 0.00 70 1011.3
20260905143504 83 164 7.8 0.0 0.00 0.00 0.00 71 1011.3
20260905143005 83 114 7.8 0.0 0.00 0.00 0.00 72 1011.3
20260905142505 82 128 0.0 0.0 0.00 0.00 0.00 73 1011.3
20260905142213 83 199 11.3 0.0 0.00 0.00 0.00 73 1011.3
20260905141712 82 57 7.8 0.0 0.00 0.00 0.00 74 1011.3
20260905141005 82 137 7.8 0.0 0.00 0.00 0.00 76 1011.3
20260905140505 82 76 7.8 0.0 0.00 0.00 0.00 76 1011.0
20260905140005 82 129 7.8 0.0 0.00 0.00 0.00 77 1011.3
20260905135505 81 130 3.5 0.0 0.00 0.00 0.00 77 1011.0
20260905135004 81 107 7.8 0.0 0.00 0.00 0.00 79 1010.6
20260905134712 80 176 3.5 0.0 0.00 0.00 0.00 80 1011.0
20260905134004 80 73 11.3 0.0 0.00 0.00 0.00 82 1011.0
20260905133505 80 109 3.5 0.0 0.00 0.00 0.00 83 1010.6
20260905133005 80 11 3.5 0.0 0.00 0.00 0.00 83 1010.6
20260905132505 79 26 3.5 0.0 0.00 0.00 0.00 84 1010.6
20260905132005 79 103 11.3 0.0 0.00 0.00 0.00 84 1010.6
20260905131505 79 73 11.3 0.0 0.00 0.00 0.00 85 1010.6
20260905131005 78 100 0.0 0.0 0.00 0.00 0.00 86 1010.6
20260905130505 78 67 3.5 0.0 0.00 0.00 0.00 86 1010.3
20260905130004 78 82 0.0 0.0 0.00 0.00 0.00 87 1010.3
20260905125505 78 136 0.0 0.0 0.00 0.00 0.00 87 1010.3
20260905125005 77 82 3.5 0.0 0.00 0.00 0.00 88 1010.3
20260905124505 77 134 0.0 0.0 0.00 0.00 0.00 88 1010.3
20260905124005 77 117 0.0 0.0 0.00 0.00 0.00 88 1009.9
20260905123505 77 70 3.5 0.0 0.00 0.00 0.00 88 1009.9
20260905123212 77 128 0.0 0.0 0.00 0.00 0.00 88 1009.9
20260905122504 77 121 0.0 0.0 0.00 0.00 0.00 88 1009.9
20260905122005 77 154 0.0 0.0 0.00 0.00 0.00 88 1009.9
20260905121505 77 100 3.5 0.0 0.00 0.00 0.00 88 1009.6
20260905121005 77 99 0.0 0.0 0.00 0.00 0.00 88 1009.6
20260905120711 77 107 3.5 0.0 0.00 0.00 0.00 88 1009.9
20260905120005 77 124 0.0 0.0 0.00 0.00 0.00 88 1009.6
20260905115505 77 101 0.0 0.0 0.00 0.00 0.00 88 1009.6
20260905115005 77 94 0.0 0.0 0.00 0.00 0.00 87 1009.3
20260905114713 77 127 0.0 0.0 0.00 0.00 0.00 87 1009.6
20260905114005 77 79 3.5 0.0 0.00 0.00 0.00 87 1009.3
20260905113505 77 126 0.0 0.0 0.00 0.00 0.00 87 1009.6
20260905113005 78 106 0.0 0.0 0.00 0.00 0.00 87 1009.6
20260905112504 78 132 0.0 0.0 0.00 0.00 0.00 86 1009.6
20260905112005 78 93 0.0 0.0 0.00 0.00 0.00 86 1009.3
20260905111505 78 135 0.0 0.0 0.00 0.00 0.00 86 1009.6
20260905111005 78 68 3.5 0.0 0.00 0.00 0.00 86 1009.6
20260905110505 78 99 0.0 0.0 0.00 0.00 0.00 86 1009.6
20260905110005 78 86 3.5 0.0 0.00 0.00 0.00 85 1009.3
20260905105505 78 51 3.5 0.0 0.00 0.00 0.00 85 1009.6
20260905105005 78 129 0.0 0.0 0.00 0.00 0.00 85 1009.3
20260905104712 78 132 0.0 0.0 0.00 0.00 0.00 85 1009.3
20260905104212 78 83 3.5 0.0 0.00 0.00 0.00 85 1009.6
20260905103505 78 121 0.0 0.0 0.00 0.00 0.00 85 1009.6
20260905103005 78 115 0.0 0.0 0.00 0.00 0.00 85 1009.6
20260905102505 78 104 0.0 0.0 0.00 0.00 0.00 85 1009.6
20260905102005 79 108 0.0 0.0 0.00 0.00 0.00 85 1009.3
20260905101505 79 96 0.0 0.0 0.00 0.00 0.00 85 1009.6
20260905101211 79 116 0.0 0.0 0.00 0.00 0.00 85 1009.6
20260905100505 79 126 3.5 0.0 0.00 0.00 0.00 85 1009.6
20260905100005 79 112 3.5 0.0 0.00 0.00 0.00 85 1009.6
20260905095505 79 108 0.0 0.0 0.00 0.00 0.00 85 1009.6
20260905095005 79 141 0.0 0.0 0.00 0.00 0.00 84 1009.9
20260905094505 79 114 0.0 0.0 0.00 0.00 0.00 84 1009.6
20260905094005 79 108 0.0 0.0 0.00 0.00 0.00 84 1009.9
20260905093505 79 128 0.0 0.0 0.00 0.00 0.00 84 1009.6
20260905093004 79 65 0.0 0.0 0.00 0.00 0.00 85 1009.6
20260905092505 79 97 3.5 0.0 0.00 0.00 0.00 84 1009.6
20260905092005 79 96 0.0 0.0 0.00 0.00 0.00 84 1009.9
20260905091712 79 168 0.0 0.0 0.00 0.00 0.00 84 1009.6
20260905091213 79 152 3.5 0.0 0.00 0.00 0.00 84 1009.6
20260905090505 79 138 0.0 0.0 0.00 0.00 0.00 84 1009.9
20260905090005 79 141 3.5 0.0 0.00 0.00 0.00 84 1009.6
20260905085505 79 72 3.5 0.0 0.00 0.00 0.00 85 1009.6
20260905085005 79 112 0.0 0.0 0.00 0.00 0.00 85 1009.9
20260905084712 79 95 3.5 0.0 0.00 0.00 0.00 85 1009.9
20260905084005 79 115 0.0 0.0 0.00 0.00 0.00 85 1009.9
20260905083505 79 103 0.0 0.0 0.00 0.00 0.00 85 1009.9
20260905083005 79 162 0.0 0.0 0.00 0.00 0.00 85 1009.9
20260905082505 79 117 0.0 0.0 0.00 0.00 0.00 85 1009.9
20260905082005 79 130 0.0 0.0 0.00 0.00 0.00 85 1009.9
20260905081711 79 118 3.5 0.0 0.00 0.00 0.00 84 1009.9
20260905081005 80 99 0.0 0.0 0.00 0.00 0.00 84 1009.9
20260905080505 80 78 3.5 0.0 0.00 0.00 0.00 84 1010.3
20260905080005 80 35 3.5 0.0 0.00 0.00 0.00 84 1010.3
20260905075505 80 33 3.5 0.0 0.00 0.00 0.00 84 1009.9
20260905075212 80 128 7.8 0.0 0.00 0.00 0.00 84 1010.3
20260905074505 80 109 0.0 0.0 0.00 0.00 0.00 84 1010.3
20260905074005 80 131 0.0 0.0 0.00 0.00 0.00 84 1010.3
20260905073505 80 127 0.0 0.0 0.00 0.00 0.00 84 1010.3